Content
SEND FEEDBACK

Daily
Averages
Monthly
Summary
United States of America

COMANCHE, TEXAS


Home > North America > United States > Texas
Elevation: 1360 feet     Latitude: 31 54N     Longitude: 098 36W

WEATHER
 
SELECT A DAY
Number of Records: 230,154;   Date Range: 10/5/04 - 7/26/14
 
SHARE

PRINT THIS DATA

[ ← Previous Day ]
WEATHER ALMANAC - JANUARY 31, 2013
[ Next Day → ]
[ °C ]   °F
Weather ElementAverageHighLow
Temperature51.7 °F68 °F (3:35 pm)37.4 °F (5:35 am)
Dewpoint17.7 °F28.4 °F (11:35 pm)12.2 °F (5:55 am)
Humidity27.2 %53 % (11:35 pm)15 % (2:35 pm)
Barometer30.17 in30.27 in (11:55 pm)30.12 in (2:35 pm)
Wind Speed11.1 mph20.7 mph (10:35 am)
Wind Gust31.1 mph (2:15 pm)
Weather ElementAverage
Visibility10 mi
Wind DirectionWSW (231.4 °)

Weather ElementTotal
Precipitation---
Heating Degree Days12.3 (Base 65)
Growing Degree Days2.7 (Base 50)
Averaged from 71 records on January 31, 2013
WEATHER CONDITIONS BREAKOUT
WIND DIRECTION BREAKOUT
WEATHER BY HOUR - JANUARY 31, 2013
[ °C ]   °F
Local TimeTemperatureDewpointHumidityBarometerVisibilityWind DirectionWind SpeedGust SpeedPrecipitationEventsConditions
12:35 AM41.0 °F15.8 °F36 %30.16 in10.0 miSW (220°)10.4 mphClear
12:55 AM41.0 °F14.0 °F33 %30.15 in10.0 miSW (220°)11.5 mphClear
1:15 AM41.0 °F14.0 °F33 %30.15 in10.0 miSW (230°)11.5 mphClear
1:35 AM41.0 °F14.0 °F33 %30.16 in10.0 miSW (230°)10.4 mphClear
1:55 AM41.0 °F14.0 °F33 %30.16 in10.0 miSW (230°)9.2 mphClear
2:15 AM41.0 °F14.0 °F33 %30.15 in10.0 miWSW (240°)13.8 mph17.3 mphClear
2:35 AM41.0 °F14.0 °F33 %30.15 in10.0 miSW (230°)13.8 mphClear
2:55 AM41.0 °F14.0 °F33 %30.16 in10.0 miSW (230°)10.4 mphClear
3:15 AM41.0 °F14.0 °F33 %30.16 in10.0 miSW (230°)12.7 mphClear
3:35 AM41.0 °F14.0 °F33 %30.15 in10.0 miWSW (240°)11.5 mphClear
3:55 AM39.2 °F14.0 °F36 %30.15 in10.0 miWSW (250°)11.5 mphClear
4:15 AM41.0 °F14.0 °F33 %30.14 in10.0 miWest (260°)10.4 mphClear
4:35 AM41.0 °F14.0 °F33 %30.13 in10.0 miWSW (250°)11.5 mphClear
4:55 AM41.0 °F14.0 °F33 %30.13 in10.0 miWSW (250°)9.2 mphClear
5:15 AM41.0 °F14.0 °F33 %30.13 in10.0 miWest (270°)5.8 mphClear
5:35 AM37.4 °F14.0 °F38 %30.14 in10.0 miWSW (250°)4.6 mphClear
5:55 AM41.0 °F12.2 °F31 %30.13 in10.0 miWSW (250°)8.1 mphClear
6:15 AM41.0 °F14.0 °F33 %30.14 in10.0 miWSW (250°)8.1 mphClear
6:35 AM41.0 °F14.0 °F33 %30.14 in10.0 miSW (230°)13.8 mphClear
6:55 AM39.2 °F14.0 °F36 %30.15 in10.0 miSW (230°)12.7 mph18.4 mphClear
7:15 AM39.2 °F14.0 °F36 %30.16 in10.0 miSW (230°)13.8 mph19.6 mphClear
7:35 AM41.0 °F14.0 °F33 %30.17 in10.0 miWSW (240°)18.4 mph25.3 mphClear
7:55 AM41.0 °F14.0 °F33 %30.17 in10.0 miWSW (240°)17.3 mph20.7 mphClear
8:15 AM41.0 °F14.0 °F33 %30.18 in10.0 miWSW (240°)15.0 mph20.7 mphClear
8:35 AM42.8 °F15.8 °F34 %30.19 in10.0 miWSW (240°)17.3 mph24.2 mphClear
8:55 AM44.6 °F15.8 °F31 %30.19 in10.0 miWSW (240°)16.1 mph21.9 mphClear
9:15 AM48.2 °F15.8 °F27 %30.20 in10.0 miWSW (240°)15.0 mph26.5 mphClear
9:35 AM48.2 °F15.8 °F27 %30.20 in10.0 miWSW (240°)16.1 mph27.6 mphClear
9:55 AM50.0 °F17.6 °F28 %30.21 in10.0 miSW (230°)15.0 mph25.3 mphClear
10:15 AM51.8 °F17.6 °F26 %30.21 in10.0 miWSW (240°)19.6 mph26.5 mphClear
10:35 AM51.8 °F17.6 °F26 %30.21 in10.0 miWSW (240°)20.7 mph27.6 mphClear
10:55 AM53.6 °F17.6 °F24 %30.21 in10.0 miWSW (240°)15.0 mph26.5 mphClear
11:15 AM55.4 °F19.4 °F25 %30.21 in10.0 miWSW (240°)19.6 mph24.2 mphClear
11:35 AM57.2 °F17.6 °F21 %30.21 in10.0 miWSW (250°)20.7 mph26.5 mphClear
11:55 AM59.0 °F17.6 °F20 %30.21 in10.0 miWSW (240°)19.6 mph28.8 mphClear
12:15 PM59.0 °F17.6 °F20 %30.19 in10.0 miWSW (250°)15.0 mph24.2 mphClear
12:35 PM60.8 °F19.4 °F20 %30.19 in10.0 miWSW (240°)16.1 mph23.0 mphClear
12:55 PM62.6 °F19.4 °F19 %30.17 in10.0 miSW (230°)13.8 mph20.7 mphClear
1:15 PM64.4 °F17.6 °F16 %30.16 in10.0 miWSW (250°)13.8 mph20.7 mphClear
1:35 PM64.4 °F17.6 °F16 %30.16 in10.0 miWest (260°)19.6 mph28.8 mphClear
1:55 PM64.4 °F17.6 °F16 %30.14 in10.0 miWSW (250°)17.3 mph25.3 mphClear
2:15 PM64.4 °F17.6 °F16 %30.13 in10.0 miWest (260°)15.0 mph31.1 mphClear
2:35 PM66.2 °F17.6 °F15 %30.12 in10.0 miSW (230°)15.0 mph21.9 mphClear
2:55 PM66.2 °F17.6 °F15 %30.12 in10.0 miWSW (240°)15.0 mph27.6 mphClear
3:15 PM66.2 °F17.6 °F15 %30.12 in10.0 miWest (260°)13.8 mph24.2 mphClear
3:35 PM68.0 °F17.6 °F15 %30.13 in10.0 miWest (280°)15.0 mph20.7 mphClear
3:55 PM66.2 °F17.6 °F15 %30.12 in10.0 miWest (260°)12.7 mph19.6 mphClear
4:15 PM66.2 °F17.6 °F15 %30.13 in10.0 miWest (260°)17.3 mph26.5 mphClear
4:35 PM64.4 °F17.6 °F16 %30.12 in10.0 miWSW (240°)15.0 mph23.0 mphClear
4:55 PM64.4 °F19.4 °F18 %30.12 in10.0 miSW (220°)12.7 mph19.6 mphClear
5:15 PM62.6 °F21.2 °F20 %30.13 in10.0 miSW (230°)5.8 mphClear
5:35 PM64.4 °F21.2 °F19 %30.13 in10.0 miWSW (250°)6.9 mphClear
5:55 PM62.6 °F21.2 °F20 %30.14 in10.0 miWest (270°)5.8 mphClear
6:15 PM60.8 °F21.2 °F22 %30.14 in10.0 miWSW (240°)3.5 mphClear
6:35 PM60.8 °F21.2 °F22 %30.16 in10.0 miWest (260°)3.5 mphClear
6:55 PM59.0 °F21.2 °F23 %30.16 in10.0 miWest (270°)4.6 mphClear
7:15 PM57.2 °F23.0 °F27 %30.18 in10.0 miWest (270°)4.6 mphClear
7:35 PM57.2 °F21.2 °F25 %30.19 in10.0 miWest (260°)5.8 mphClear
7:55 PM57.2 °F21.2 °F25 %30.20 in10.0 miWest (280°)3.5 mphClear
8:15 PM55.4 °F21.2 °F26 %30.21 in10.0 miWest (280°)4.6 mphClear
8:35 PM55.4 °F21.2 °F26 %30.21 in10.0 miWest (260°)5.8 mphClear
8:55 PM51.8 °F23.0 °F33 %30.22 in10.0 miSSW (210°)4.6 mphClear
9:15 PM53.6 °F21.2 °F28 %30.22 in10.0 miWest (270°)4.6 mphClear
9:35 PM53.6 °F23.0 °F30 %30.22 in10.0 miNW (310°)3.5 mphClear
9:55 PM50.0 °F23.0 °F35 %30.24 in10.0 miCalmClear
10:15 PM55.4 °F21.2 °F26 %30.24 in10.0 miCalmClear
10:35 PM53.6 °F21.2 °F28 %30.25 in10.0 miWest (270°)3.5 mphClear
10:55 PM55.4 °F19.4 °F25 %30.25 in10.0 miNNW (340°)3.5 mphClear
11:15 PM51.8 °F21.2 °F30 %30.26 in10.0 miNorth (10°)3.5 mphClear
11:35 PM44.6 °F28.4 °F53 %30.26 in10.0 miNorth (10°)5.8 mphClear
11:55 PM46.4 °F26.6 °F46 %30.27 in10.0 miNNE (30°)5.8 mphClear
Hourly data recorded from KMKN, located miles away from Comanche, Texas







STORIES FROM OUR PARTNERS